Home   Weather   Aguascalientes   Past weeks

Flag for Mexico Past Weather in Aguascalientes, Aguascalientes, Mexico — Yesterday and Last 2 Weeks

Now
61 °F

Clear.


Feels Like: 61 °F
Forecast: 43 / 71 °F
Wind: 7 mph from Southwest

Location: Aguascalientes - Ags.

Current Time: Jan 16, 2017 at 9:09:36 pm

Latest Report: Jan 16, 2017 at 7:56 pm


Visibility: 9 mi

Pressure: 30.16 "Hg (24.18 "Hg at 1870m altitude)

Humidity: 29%

Dew Point: 28 °F

Location of AguascalientesLocation

Past Weather in Aguascalientes — Graph

°F

Aguascalientes Temperature Yesterday

Maximum temperature yesterday: 73 °F (at 2:46 pm)
Minimum temperature yesterday: 39 °F (at 7:41 am)
Average temperature yesterday: 58 °F

High & Low Weather Summary for the Past Weeks

 TemperatureHumidityPressure
High82 °F (Jan 4, 2:47 pm)93% (Jan 8, 7:40 am)30.60 "Hg (Jan 8, 7:40 am)
Low34 °F (Jan 10, 5:49 am)5% (Jan 11, 4:41 pm)29.76 "Hg (Jan 5, 5:41 pm)
Average59 °F33%30.24 "Hg
* Reported Jan 1 7:42 pm — Jan 16 7:56 pm, Aguascalientes, Weather by CustomWeather, © 2017

Note: Actual official high and low records may vary slightly from our data, if they occured in-between our weather recording intervals... More about our weather records

Advertising

Aguascalientes Weather History for the Previous 24 Hours

Scroll right to see more
 ConditionsComfort  
Time TempWeatherWind HumidityBarometerVisibility
7:56 pm
Mon, Jan 16
61 °FClear.7 mph29%30.16 "Hg9 mi
6:41 pm64 °FPassing clouds.7 mph26%30.14 "Hg9 mi
5:40 pm70 °FPartly sunny.9 mph18%29.88 "Hg10 mi
4:46 pm73 °FScattered clouds.12 mph16%30.11 "Hg10 mi
3:40 pm73 °FPassing clouds.14 mph16%30.11 "Hg10 mi
2:40 pm73 °FSunny.15 mph16%30.13 "Hg10 mi
1:40 pm72 °FSunny.13 mph20%30.17 "Hg10 mi
12:42 pm68 °FSunny.12 mph23%30.21 "Hg10 mi
11:40 am64 °FPassing clouds.6 mph26%29.97 "Hg10 mi
10:48 am64 °FSunny.7 mph28%30.27 "Hg10 mi
9:47 am57 °FSunny.5 mph36%30.27 "Hg10 mi
8:42 am46 °FPassing clouds.5 mph50%30.25 "Hg10 mi
7:44 am41 °FPartly sunny.6 mph61%30.23 "Hg10 mi
6:49 am37 °FPassing clouds.6 mph70%30.21 "Hg9 mi
5:47 am43 °FPassing clouds.No wind57%29.94 "Hg9 mi
4:53 am46 °FClear.6 mph50%30.19 "Hg9 mi
11:40 pm
Sun, Jan 15
54 °FClear.6 mph33%29.91 "Hg10 mi
10:41 pm52 °FClear.7 mph35%30.23 "Hg10 mi
9:40 pm52 °FClear.10 mph32%30.22 "Hg10 mi
Weather by CustomWeather, © 2017

See weather overviewHow to use our weather pages